Location: Colonia Mina de C?rbuni
(46.1667°N, 22.7167°E)
Time: 17:28:03
(UTC+00:00)

Cosmos 1626 Rocket - Pass Details

Date: 04 February 2023
Orbit: 602 x 629 km, 82.5° (Epoch: 30 March)

Event Time Altitude Azimuth Distance (km) Brightness Sun altitude
Rises 17:54:45 0° 190° (S) 2,840 7.1 -23.9°
Reaches altitude 10° 17:56:57 10° 191° (S) 1,943 6.2 -24.3°
Enters shadow 18:00:42 67° 210° (SSW) 660 3.7 -24.9°
